GW0835 Weather Reports


time (UTC)temp
C
wind
direction
speed
KPH
gust
KPH
rain 1hr
cm
rain 24hr
cm
rain mn
cm
humidity
%
barometer
mb
20260905234610 12 223 11.3 24.1 0.00 0.00 0.00 83 1015.9
20260905233101 12 244 8.0 17.7 0.00 0.00 0.00 83 1015.7
20260905231604 13 272 9.7 20.9 0.00 0.00 0.00 82 1015.7
20260905230104 13 281 12.9 25.7 0.00 0.00 0.00 82 1015.7
20260905224612 13 267 11.3 27.4 0.00 0.00 0.00 81 1015.5
20260905223058 13 274 11.3 20.9 0.00 0.00 0.00 81 1015.7
20260905221605 13 257 11.3 22.5 0.00 0.00 0.00 81 1015.6
20260905220118 13 265 16.1 29.0 0.00 0.00 0.00 81 1015.5
20260905214558 13 292 9.7 27.4 0.00 0.13 0.00 81 1015.4
20260905213057 13 239 12.9 22.5 0.00 0.13 0.00 80 1015.5
20260905211554 13 265 9.7 24.1 0.00 0.13 0.00 80 1015.4
20260905210109 13 234 11.3 25.7 0.00 0.13 0.00 80 1015.2
20260905204557 13 244 9.7 20.9 0.00 0.33 0.00 80 1015.1
20260905203117 13 252 9.7 25.7 0.00 0.33 0.00 79 1015.0
20260905201604 13 248 11.3 20.9 0.00 0.33 0.00 79 1015.1
20260905200106 13 262 11.3 22.5 0.00 0.33 0.00 79 1014.9
20260905194609 13 223 12.9 19.3 0.00 0.33 0.00 79 1014.8
20260905193104 13 234 11.3 19.3 0.00 0.33 0.00 79 1014.9
20260905191611 13 246 8.0 19.3 0.00 0.33 0.00 79 1015.2
20260905184602 13 229 8.0 20.9 0.00 0.33 0.00 78 1015.5
20260905183057 14 210 11.3 19.3 0.00 0.33 0.00 77 1015.6
20260905181551 14 234 6.4 16.1 0.00 0.33 0.00 76 1015.4
20260905180104 14 237 8.0 12.9 0.00 0.33 0.00 75 1015.4
20260905174601 14 273 4.8 11.3 0.00 0.33 0.00 74 1015.2
20260905173055 14 238 6.4 16.1 0.00 0.33 0.00 74 1015.3
20260905171615 15 256 9.7 16.1 0.00 0.33 0.00 73 1015.0
20260905170106 15 250 8.0 17.7 0.00 0.33 0.00 72 1014.9
20260905164602 16 254 8.0 16.1 0.00 0.33 0.00 70 1015.1
20260905163105 16 267 12.9 19.3 0.00 0.33 0.00 69 1015.1
20260905161604 16 242 12.9 25.7 0.00 0.33 0.00 70 1015.0
20260905160110 17 290 12.9 30.6 0.00 0.33 0.00 65 1014.7
20260905154646 18 286 8.0 16.1 0.00 0.33 0.00 61 1014.2
20260905153104 18 283 12.9 20.9 0.00 0.33 0.00 59 1014.1
20260905151604 18 279 9.7 25.7 0.00 0.33 0.00 59 1014.0
20260905150109 19 248 16.1 32.2 0.00 0.33 0.00 57 1013.9
20260905144609 19 275 14.5 27.4 0.00 0.33 0.00 57 1013.9
20260905143104 19 270 16.1 33.8 0.00 0.33 0.00 58 1013.6
20260905141604 19 289 9.7 17.7 0.00 0.33 0.00 60 1013.7
20260905140103 18 286 9.7 20.9 0.00 0.33 0.00 62 1013.7
20260905134603 18 290 12.9 32.2 0.00 0.33 0.00 60 1013.7
20260905133102 19 290 12.9 24.1 0.00 0.33 0.00 58 1013.5
20260905131554 19 273 14.5 24.1 0.00 0.33 0.00 60 1013.6
20260905130059 18 290 12.9 25.7 0.00 0.33 0.00 60 1013.4
20260905124558 20 271 17.7 30.6 0.00 0.33 0.00 58 1013.4
20260905123105 20 306 16.1 37.0 0.00 0.33 0.00 59 1013.4
20260905121559 19 306 12.9 27.4 0.00 0.33 0.00 59 1013.3
20260905120057 20 284 14.5 24.1 0.00 0.33 0.00 61 1013.2
20260905114606 19 277 17.7 27.4 0.00 0.33 0.00 63 1013.2
20260905113101 18 285 14.5 20.9 0.00 0.33 0.00 67 1013.2
20260905111627 18 293 9.7 19.3 0.00 0.33 0.00 68 1013.2
20260905110106 17 293 8.0 17.7 0.00 0.33 0.00 71 1013.0
20260905104614 17 300 8.0 19.3 0.00 0.33 0.00 73 1013.1
20260905103102 18 300 14.5 38.6 0.00 0.33 0.00 68 1012.8
20260905101559 18 308 16.1 27.4 0.00 0.33 0.00 65 1012.7
20260905100059 18 302 17.7 33.8 0.00 0.33 0.00 65 1012.7
20260905094716 18 298 12.9 22.5 0.00 0.33 0.00 67 1012.6
20260905093128 18 271 16.1 24.1 0.00 0.33 0.00 65 1012.5
20260905091603 18 264 14.5 29.0 0.00 0.33 0.00 66 1012.4
20260905090056 17 268 11.3 30.6 0.00 0.33 0.00 70 1012.5
20260905084606 17 293 14.5 29.0 0.00 0.33 0.00 71 1012.7
20260905083103 17 222 9.7 22.5 0.00 0.33 0.00 75 1012.6
20260905081557 17 293 16.1 27.4 0.00 0.33 0.00 72 1012.3
20260905080108 17 279 12.9 32.2 0.00 0.33 0.00 74 1012.2
20260905074602 16 267 14.5 29.0 0.00 0.33 0.00 74 1012.2
20260905073110 16 285 12.9 24.1 0.00 0.33 0.00 75 1012.2
20260905071559 16 284 16.1 35.4 0.00 0.33 0.00 75 1012.0
20260905070058 16 273 9.7 29.0 0.00 0.33 0.00 78 1011.9
20260905064552 16 275 14.5 24.1 0.00 0.33 0.00 79 1011.7
20260905063103 15 268 14.5 25.7 0.00 0.33 0.00 78 1011.4
20260905061604 15 282 11.3 20.9 0.00 0.33 0.00 78 1011.4
20260905060107 15 280 11.3 19.3 0.00 0.33 0.00 78 1011.1
20260905054604 15 292 12.9 19.3 0.00 0.33 0.00 79 1011.0
20260905053058 15 281 12.9 29.0 0.00 0.33 0.00 79 1010.9
20260905051609 15 270 14.5 24.1 0.00 0.33 0.00 79 1010.3
20260905050105 15 290 12.9 32.2 0.00 0.33 0.00 80 1010.1
20260905044556 15 281 11.3 19.3 0.00 0.33 0.00 85 1009.7
20260905043100 15 284 12.9 27.4 0.00 0.33 0.00 85 1009.5
20260905041608 16 232 12.9 32.2 0.00 0.33 0.00 86 1009.2
20260905040108 16 269 17.7 29.0 0.00 0.33 0.00 86 1008.9
20260905034550 16 252 16.1 33.8 0.00 0.33 0.00 86 1008.7
20260905033108 16 251 17.7 32.2 0.00 0.33 0.00 87 1008.2
20260905031604 16 238 19.3 32.2 0.00 0.33 0.00 87 1008.3
20260905030110 16 248 16.1 29.0 0.00 0.33 0.00 87 1008.2
20260905024604 16 281 16.1 30.6 0.00 0.33 0.00 87 1008.2
20260905023102 16 245 17.7 30.6 0.00 0.33 0.00 87 1008.1
20260905021608 16 244 17.7 33.8 0.00 0.33 0.00 87 1008.0
20260905020056 16 246 14.5 41.8 0.00 0.33 0.00 87 1007.7
20260905014553 16 253 24.1 37.0 0.00 0.33 0.00 87 1007.9
20260905013120 17 256 19.3 32.2 0.00 0.33 0.00 88 1007.7
20260905011610 17 213 16.1 27.4 0.00 0.33 0.00 90 1007.4
20260905010100 17 252 16.1 27.4 0.00 0.33 0.00 90 1007.4
20260905004557 17 231 17.7 25.7 0.00 0.41 0.00 90 1007.1
20260905003102 17 241 12.9 24.1 0.00 0.41 0.00 89 1007.2
20260905001601 17 248 16.1 25.7 0.00 0.41 0.00 89 1007.2
20260905000109 17 238 16.1 29.0 0.00 0.41 0.00 89 1007.0